When you browse on this site, cookies collect data to enhance your experience and personalize the content and advertising you see.
Visit our Privacy Policy to learn more. By continuing to use the site, you agree to this use of cookies and data.
  • In Österreich
  • Länderverzeichnis
  • Für 7 Tage
  • Wassertemperatur
  • Satellitenkarten
  • Wetterkarte
  • News
  • Widgets
  • user-avatar
    Anmelden

    Stündliche Wetter Buda (Lenin)

    Heute, 25 Mai, Samstag

    Zeit Temperatur Niederschläge Wind Luftdruck Luftfeuchtigkeit
    00:00 +16°C° 0.6 mm 1 m/S 742 mmHg 83%
    01:00 +16°C° 0.6 mm 1 m/S 742 mmHg 85%
    02:00 +16°C° 0 mm 1 m/S 742 mmHg 87%
    03:00 +16°C° 0 mm 1 m/S 742 mmHg 87%
    04:00 +16°C° 0 mm 1 m/S 742 mmHg 87%
    05:00 +16°C° 0 mm 1 m/S 742 mmHg 86%
    06:00 +18°C° 0 mm 1 m/S 742 mmHg 82%
    07:00 +20°C° 0 mm 1 m/S 742 mmHg 78%
    08:00 +21°C° 0 mm 1 m/S 742 mmHg 73%
    09:00 +21°C° 0 mm 2 m/S 742 mmHg 67%
    10:00 +23°C° 0 mm 2 m/S 742 mmHg 62%
    11:00 +25°C° 0 mm 2 m/S 742 mmHg 56%
    12:00 +25°C° 0.4 mm 3 m/S 741 mmHg 56%
    13:00 +25°C° 0.4 mm 3 m/S 741 mmHg 56%
    14:00 +25°C° 0.4 mm 3 m/S 741 mmHg 56%
    15:00 +25°C° 0.5 mm 3 m/S 741 mmHg 60%
    16:00 +24°C° 0.5 mm 3 m/S 741 mmHg 63%
    17:00 +24°C° 0.5 mm 3 m/S 741 mmHg 66%
    18:00 +21°C° 0.2 mm 3 m/S 741 mmHg 73%
    19:00 +19°C° 0.2 mm 3 m/S 741 mmHg 79%
    20:00 +18°C° 0.2 mm 3 m/S 741 mmHg 85%
    21:00 +17°C° 0 mm 3 m/S 741 mmHg 87%
    22:00 +16°C° 0 mm 3 m/S 741 mmHg 89%
    23:00 +14°C° 0 mm 3 m/S 742 mmHg 92%

    Morgen, 26 Mai, Sonntag

    Zeit Temperatur Niederschläge Wind Luftdruck Luftfeuchtigkeit
    00:00 +14°C° 0 mm 3 m/S 742 mmHg 92%
    01:00 +13°C° 0 mm 3 m/S 742 mmHg 92%
    02:00 +12°C° 0 mm 3 m/S 742 mmHg 93%
    03:00 +12°C° 0 mm 3 m/S 742 mmHg 92%
    04:00 +12°C° 0 mm 3 m/S 743 mmHg 92%
    05:00 +12°C° 0 mm 3 m/S 743 mmHg 91%
    06:00 +13°C° 0 mm 3 m/S 743 mmHg 85%
    07:00 +16°C° 0 mm 3 m/S 743 mmHg 79%
    08:00 +17°C° 0 mm 3 m/S 743 mmHg 73%
    09:00 +18°C° 0 mm 4 m/S 743 mmHg 67%
    10:00 +19°C° 0 mm 5 m/S 743 mmHg 62%
    11:00 +20°C° 0 mm 5 m/S 743 mmHg 56%
    12:00 +20°C° 0 mm 5 m/S 743 mmHg 53%
    13:00 +21°C° 0 mm 5 m/S 743 mmHg 50%
    14:00 +21°C° 0 mm 6 m/S 743 mmHg 47%
    15:00 +21°C° 0 mm 5 m/S 743 mmHg 49%
    16:00 +21°C° 0 mm 5 m/S 743 mmHg 52%
    17:00 +20°C° 0 mm 5 m/S 743 mmHg 54%
    18:00 +19°C° 0 mm 4 m/S 743 mmHg 61%
    19:00 +17°C° 0 mm 4 m/S 743 mmHg 68%
    20:00 +14°C° 0 mm 3 m/S 744 mmHg 75%
    21:00 +14°C° 0 mm 3 m/S 744 mmHg 78%
    22:00 +14°C° 0 mm 2 m/S 744 mmHg 82%
    23:00 +13°C° 0 mm 2 m/S 744 mmHg 85%

    übermorgen, 27 Mai, Montag

    Zeit Temperatur Niederschläge Wind Luftdruck Luftfeuchtigkeit
    00:00 +12°C° 0 mm 2 m/S 745 mmHg 87%
    01:00 +12°C° 0 mm 2 m/S 745 mmHg 90%
    02:00 +12°C° 0 mm 2 m/S 745 mmHg 92%
    03:00 +12°C° 0 mm 2 m/S 745 mmHg 92%
    04:00 +12°C° 0 mm 2 m/S 745 mmHg 91%
    05:00 +12°C° 0 mm 2 m/S 746 mmHg 91%
    06:00 +13°C° 0 mm 3 m/S 746 mmHg 83%
    07:00 +16°C° 0 mm 3 m/S 746 mmHg 75%
    08:00 +18°C° 0 mm 4 m/S 746 mmHg 67%
    09:00 +20°C° 0 mm 4 m/S 746 mmHg 63%
    10:00 +21°C° 0 mm 5 m/S 746 mmHg 58%
    11:00 +22°C° 0 mm 5 m/S 746 mmHg 54%
    12:00 +23°C° 0 mm 5 m/S 746 mmHg 53%
    13:00 +25°C° 0 mm 5 m/S 746 mmHg 51%
    14:00 +25°C° 0 mm 5 m/S 746 mmHg 50%
    15:00 +25°C° 0 mm 4 m/S 745 mmHg 52%
    16:00 +26°C° 0 mm 4 m/S 745 mmHg 53%
    17:00 +26°C° 0 mm 3 m/S 745 mmHg 55%
    18:00 +24°C° 0 mm 3 m/S 745 mmHg 61%
    19:00 +22°C° 0 mm 3 m/S 745 mmHg 67%
    20:00 +20°C° 0 mm 3 m/S 745 mmHg 73%
    21:00 +19°C° 0.1 mm 3 m/S 746 mmHg 79%
    22:00 +18°C° 0.1 mm 3 m/S 746 mmHg 85%
    23:00 +17°C° 0.1 mm 3 m/S 746 mmHg 90%

    28 Mai, Dienstag

    Zeit Temperatur Niederschläge Wind Luftdruck Luftfeuchtigkeit
    00:00 +17°C° 0.1 mm 3 m/S 746 mmHg 91%
    01:00 +17°C° 0.1 mm 3 m/S 746 mmHg 92%
    02:00 +17°C° 0.1 mm 3 m/S 746 mmHg 93%
    03:00 +17°C° 0 mm 3 m/S 746 mmHg 93%
    04:00 +17°C° 0 mm 2 m/S 746 mmHg 92%
    05:00 +17°C° 0 mm 2 m/S 746 mmHg 91%
    06:00 +19°C° 0 mm 3 m/S 746 mmHg 86%
    07:00 +21°C° 0 mm 3 m/S 746 mmHg 82%
    08:00 +22°C° 0 mm 3 m/S 746 mmHg 77%
    09:00 +23°C° 1.1 mm 4 m/S 746 mmHg 74%
    10:00 +25°C° 1.1 mm 5 m/S 746 mmHg 71%
    11:00 +26°C° 1.1 mm 5 m/S 746 mmHg 68%
    12:00 +27°C° 0.5 mm 6 m/S 746 mmHg 62%
    13:00 +28°C° 0.5 mm 7 m/S 745 mmHg 57%
    14:00 +28°C° 0.5 mm 7 m/S 745 mmHg 52%
    15:00 +28°C° 0 mm 7 m/S 745 mmHg 54%
    16:00 +28°C° 0 mm 6 m/S 745 mmHg 56%
    17:00 +27°C° 0 mm 5 m/S 744 mmHg 57%
    18:00 +26°C° 0 mm 5 m/S 745 mmHg 62%
    19:00 +23°C° 0 mm 5 m/S 745 mmHg 67%
    20:00 +21°C° 0 mm 4 m/S 745 mmHg 72%
    21:00 +21°C° 0 mm 4 m/S 745 mmHg 75%
    22:00 +20°C° 0 mm 4 m/S 745 mmHg 78%
    23:00 +20°C° 0 mm 4 m/S 745 mmHg 81%

    29 Mai, Mittwoch

    Zeit Temperatur Niederschläge Wind Luftdruck Luftfeuchtigkeit
    00:00 +19°C° 0 mm 4 m/S 745 mmHg 82%
    01:00 +19°C° 0 mm 5 m/S 745 mmHg 84%
    02:00 +19°C° 0 mm 5 m/S 745 mmHg 85%
    03:00 +19°C° 0 mm 5 m/S 745 mmHg 83%
    04:00 +17°C° 0 mm 5 m/S 745 mmHg 81%
    05:00 +17°C° 0 mm 5 m/S 745 mmHg 79%
    06:00 +19°C° 0 mm 6 m/S 745 mmHg 74%
    07:00 +21°C° 0 mm 7 m/S 745 mmHg 70%
    08:00 +22°C° 0 mm 8 m/S 745 mmHg 66%
    09:00 +23°C° 0 mm 8 m/S 745 mmHg 62%
    10:00 +24°C° 0 mm 8 m/S 745 mmHg 59%
    11:00 +26°C° 0 mm 8 m/S 745 mmHg 55%
    12:00 +27°C° 0 mm 8 m/S 745 mmHg 55%
    13:00 +28°C° 0 mm 8 m/S 744 mmHg 54%
    14:00 +28°C° 0 mm 8 m/S 744 mmHg 53%
    15:00 +28°C° 0 mm 7 m/S 744 mmHg 56%
    16:00 +27°C° 0 mm 7 m/S 744 mmHg 60%
    17:00 +27°C° 0 mm 6 m/S 744 mmHg 64%
    18:00 +24°C° 0.3 mm 6 m/S 744 mmHg 68%
    19:00 +23°C° 0.3 mm 5 m/S 744 mmHg 71%
    20:00 +22°C° 0.3 mm 5 m/S 745 mmHg 75%
    21:00 +21°C° 0.1 mm 4 m/S 745 mmHg 78%
    22:00 +21°C° 0.1 mm 4 m/S 745 mmHg 80%
    23:00 +20°C° 0.1 mm 4 m/S 745 mmHg 82%

    30 Mai, Donnerstag

    Zeit Temperatur Niederschläge Wind Luftdruck Luftfeuchtigkeit
    00:00 +19°C° 0 mm 4 m/S 745 mmHg 85%
    01:00 +19°C° 0 mm 3 m/S 745 mmHg 87%
    02:00 +18°C° 0 mm 3 m/S 745 mmHg 89%
    03:00 +18°C° 0.1 mm 3 m/S 745 mmHg 90%
    04:00 +18°C° 0.1 mm 2 m/S 746 mmHg 92%
    05:00 +18°C° 0.1 mm 2 m/S 746 mmHg 93%
    06:00 +19°C° 0.3 mm 2 m/S 746 mmHg 89%
    07:00 +21°C° 0.3 mm 1 m/S 747 mmHg 85%
    08:00 +23°C° 0.3 mm 1 m/S 747 mmHg 81%
    09:00 +24°C° 0.3 mm 1 m/S 747 mmHg 77%
    10:00 +24°C° 0.3 mm 1 m/S 747 mmHg 74%
    11:00 +25°C° 0.3 mm 2 m/S 748 mmHg 70%
    12:00 +25°C° 1.4 mm 2 m/S 748 mmHg 71%
    13:00 +25°C° 1.4 mm 3 m/S 748 mmHg 71%
    14:00 +25°C° 1.4 mm 3 m/S 748 mmHg 72%
    15:00 +25°C° 0.7 mm 3 m/S 748 mmHg 74%
    16:00 +25°C° 0.7 mm 4 m/S 749 mmHg 76%
    17:00 +23°C° 0.7 mm 4 m/S 749 mmHg 78%
    18:00 +22°C° 0.1 mm 3 m/S 749 mmHg 82%
    19:00 +21°C° 0.1 mm 3 m/S 749 mmHg 86%
    20:00 +20°C° 0.1 mm 2 m/S 749 mmHg 90%
    21:00 +19°C° 0 mm 2 m/S 749 mmHg 92%
    22:00 +18°C° 0 mm 2 m/S 749 mmHg 93%
    23:00 +18°C° 0 mm 2 m/S 749 mmHg 95%
    Mehr zeigen